Weather reports worldwide

Advertisment
Biscarosse, France (7503): temperature & dewpoint: 02.07.2020 15:00:00 - 08.07.2020 15:00:00 (CEST)Biscarosse, France (7503): temperature 5cm: 02.07.2020 15:00:00 - 08.07.2020 15:00:00 (CEST)Biscarosse, France (7503): temperature -20cm & temperature -100cm: 02.07.2020 15:00:00 - 08.07.2020 15:00:00 (CEST)Biscarosse, France (7503): wind speed & gusts: 02.07.2020 15:00:00 - 08.07.2020 15:00:00 (CEST)Biscarosse, France (7503): wind direction: 02.07.2020 15:00:00 - 08.07.2020 15:00:00 (CEST)Biscarosse, France (7503): reduced air pressure: 02.07.2020 15:00:00 - 08.07.2020 15:00:00 (CEST)Biscarosse, France (7503): visibility: 02.07.2020 15:00:00 - 08.07.2020 15:00:00 (CEST)Biscarosse, France (7503): sunshine duration: 02.07.2020 15:00:00 - 08.07.2020 15:00:00 (CEST)Biscarosse, France (7503): precipitation: 02.07.2020 15:00:00 - 08.07.2020 15:00:00 (CEST)
Date & Time tt [°C] td [°C] tt 5cm [°C] tt -20cm [°C] tt -100cm [°C] ff [km/h] ff [kn] fx [km/h] fx [kn] dd ppp [hPa] vv [km] sd [min] rr [mm]
08.07.2020 15:00:00 - - - - - - - - - - - - - -
08.07.2020 14:00:00 26,1 13,9 40,4 27,0 25,2 20 11 27 15 NNW 1018,4 20 60 0,0
08.07.2020 13:00:00 28,4 10,6 37,0 26,8 25,2 14 8 21 12 NW 1018,7 20 60 0,0
08.07.2020 12:00:00 26,9 8,8 35,8 26,8 25,2 10 5 19 10 NW 1018,9 20 60 0,0
08.07.2020 11:00:00 25,4 11,6 31,8 27,1 25,2 8 4 18 10 ENE 1018,8 20 60 0,0
08.07.2020 10:00:00 23,0 12,3 27,5 27,3 25,2 13 7 22 12 ENE 1018,7 20 60 0,0
08.07.2020 09:00:00 20,5 12,5 22,4 27,6 25,2 12 7 23 12 ENE 1018,7 20 58 0,0
08.07.2020 08:00:00 18,5 13,1 16,0 28,0 25,2 13 7 21 11 E 1018,3 20 23 0,0
08.07.2020 07:00:00 16,7 12,6 15,8 28,4 25,2 14 8 24 13 E 1018,2 20 0 0,0
08.07.2020 06:00:00 16,9 13,2 16,0 28,8 25,2 14 8 25 14 ENE 1018,0 20 0 0,0
08.07.2020 05:00:00 17,1 13,8 15,5 29,1 25,1 13 7 21 11 ENE 1018,1 20 0 0,0
08.07.2020 04:00:00 16,8 13,3 15,4 29,5 25,1 10 5 19 10 NE 1018,6 20 0 0,0
08.07.2020 03:00:00 17,3 13,0 15,9 29,8 25,1 11 6 18 10 NE 1019,0 20 0 0,0
08.07.2020 02:00:00 17,6 13,1 16,3 30,1 25,1 13 7 20 11 NE 1019,3 20 0 0,0
08.07.2020 01:00:00 17,8 12,9 16,4 30,4 25,1 10 5 18 10 NE 1019,6 20 0 0,0
08.07.2020 00:00:00 17,9 12,3 16,1 30,6 25,1 10 5 14 8 NE 1019,9 20 0 0,0
07.07.2020 23:00:00 18,1 12,3 16,4 30,6 25,1 7 4 12 6 NNE 1019,8 20 0 0,0
07.07.2020 22:00:00 19,4 11,9 17,8 30,6 25,1 8 4 29 16 N 1019,4 20 26 0,0
07.07.2020 21:00:00 21,6 12,2 22,3 30,3 25,1 21 11 41 22 N 1019,2 20 60 0,0
07.07.2020 20:00:00 21,3 13,7 24,6 30,0 25,2 31 17 41 22 N 1019,2 19 58 0,0
07.07.2020 19:00:00 20,9 13,3 24,0 29,5 25,2 29 16 40 22 N 1019,3 20 0 0,0
07.07.2020 18:00:00 22,5 13,3 27,8 28,8 25,2 27 15 36 19 N 1020,0 20 34 0,0
07.07.2020 17:00:00 24,1 12,4 34,8 28,3 25,2 23 12 31 17 NNW 1020,2 20 60 0,0
07.07.2020 16:00:00 23,6 13,2 28,6 27,7 25,2 21 11 29 16 NNW 1020,6 20 48 0,0
07.07.2020 15:00:00 21,3 12,7 28,4 27,1 25,2 20 11 27 15 NNW 1021,0 20 36 0,0
07.07.2020 14:00:00 21,6 12,2 28,1 26,8 25,2 20 11 25 13 NW 1021,3 20 35 0,0
07.07.2020 13:00:00 22,9 13,1 35,0 26,6 25,2 20 11 23 12 NW 1021,7 19 58 0,0
07.07.2020 12:00:00 22,2 12,2 32,9 26,7 25,2 18 10 25 14 W 1021,9 20 60 0,0
07.07.2020 11:00:00 22,4 10,8 29,7 26,9 25,2 10 5 22 12 ESE 1021,8 20 60 0,0
07.07.2020 10:00:00 20,3 11,2 23,9 27,2 25,2 11 6 28 15 E 1021,9 20 60 0,0
07.07.2020 09:00:00 17,7 11,3 18,8 27,6 25,2 14 8 26 14 E 1021,7 20 57 0,0
07.07.2020 08:00:00 13,9 12,8 10,8 28,1 25,2 0 0 7 4 N 1022,0 20 24 0,0
07.07.2020 07:00:00 12,3 11,2 10,0 28,5 25,1 0 0 7 4 N 1022,0 12 0 0,0
07.07.2020 06:00:00 12,7 11,3 10,3 28,9 25,1 2 1 7 4 N 1022,1 19 0 0,0
07.07.2020 05:00:00 14,4 13,3 11,5 29,3 25,1 5 3 11 6 NE 1022,2 20 0 0,0
07.07.2020 04:00:00 13,6 12,3 11,9 29,7 25,1 4 2 5 3 ENE 1022,5 18 0 0,0
07.07.2020 03:00:00 13,9 12,5 12,3 30,1 25,1 2 1 6 3 E 1023,3 19 0 0,0
07.07.2020 02:00:00 14,4 12,3 12,9 30,5 25,1 6 3 10 6 NE 1023,5 20 0 0,0
07.07.2020 01:00:00 14,8 12,3 13,6 30,8 25,1 7 4 9 5 ENE 1023,9 20 0 0,0
07.07.2020 00:00:00 15,3 12,1 14,2 31,0 25,1 6 4 14 8 ENE 1024,1 20 0 0,0
06.07.2020 23:00:00 16,5 12,1 15,4 31,1 25,1 10 5 32 17 NNE 1024,2 20 0 0,0
06.07.2020 22:00:00 17,4 11,9 16,8 31,0 25,1 24 13 34 19 N 1023,9 16 26 0,0
06.07.2020 21:00:00 19,1 11,6 19,5 30,7 25,0 24 13 36 20 N 1023,7 20 60 0,0
06.07.2020 20:00:00 20,2 11,4 24,5 30,3 25,1 27 15 37 20 N 1023,8 20 60 0,0
06.07.2020 19:00:00 20,7 11,6 27,2 29,9 25,1 29 16 42 23 N 1023,9 20 60 0,0
06.07.2020 18:00:00 21,0 11,1 29,6 29,3 25,1 33 18 45 24 N 1024,2 20 60 0,0
06.07.2020 17:00:00 21,1 12,0 31,2 28,7 25,1 33 18 45 24 N 1024,3 20 60 0,0
06.07.2020 16:00:00 21,3 11,6 32,9 28,2 25,1 32 17 43 23 NNW 1024,3 20 60 0,0
06.07.2020 15:00:00 21,0 12,4 33,2 27,9 25,1 33 18 41 22 NNW 1024,5 20 60 0,0
06.07.2020 14:00:00 20,6 12,8 33,0 27,7 25,0 30 16 41 22 NNW 1024,5 20 60 0,0
06.07.2020 13:00:00 20,7 12,9 31,9 27,8 25,0 28 15 35 19 NNW 1024,5 20 60 0,0
06.07.2020 12:00:00 20,0 12,2 31,7 28,0 25,0 27 14 36 20 N 1024,5 20 60 0,0
06.07.2020 11:00:00 20,1 13,8 20,9 28,2 25,0 27 14 37 20 N 1024,3 20 54 0,0
06.07.2020 10:00:00 18,8 13,9 17,6 28,5 24,9 23 12 36 19 N 1024,0 20 2 0,0
06.07.2020 09:00:00 17,1 14,6 17,0 28,9 24,9 25 13 38 20 N 1023,9 20 0 0,0
06.07.2020 08:00:00 17,4 16,6 17,5 29,2 24,9 13 7 27 15 NNE 1023,3 20 0 0,0
06.07.2020 07:00:00 17,6 17,0 17,7 29,6 24,9 23 12 34 18 N 1022,8 3,6 0 0,4
06.07.2020 06:00:00 17,6 16,8 17,4 30,0 24,9 13 7 29 16 N 1022,6 6 0 0,0
06.07.2020 05:00:00 18,1 17,3 18,0 30,3 24,9 20 11 27 15 NNW 1022,5 6 0 0,2
06.07.2020 04:00:00 18,1 17,5 17,8 30,7 24,8 15 8 25 13 NNW 1022,8 12 0 0,0
06.07.2020 03:00:00 18,3 17,5 18,2 31,0 24,8 21 11 26 14 NNW 1023,1 4,5 0 0,2
06.07.2020 02:00:00 18,7 16,7 18,1 31,3 24,8 16 9 26 14 NW 1023,2 20 0 0,0
06.07.2020 01:00:00 18,5 17,3 18,3 31,5 24,8 20 11 24 13 NW 1023,3 20 0 0,0
06.07.2020 00:00:00 18,8 17,8 18,5 31,7 24,8 19 10 26 14 NW 1023,2 20 0 0,2
05.07.2020 23:00:00 19,5 18,0 19,6 31,7 24,8 20 11 28 15 NW 1023,2 4,9 0 0,0
05.07.2020 22:00:00 20,0 18,0 20,8 31,7 24,8 16 9 22 12 NNW 1022,7 20 0 0,0
05.07.2020 21:00:00 20,1 17,7 21,8 31,4 24,8 11 6 20 11 NW 1022,3 20 0 0,0
05.07.2020 20:00:00 21,2 17,0 24,3 31,0 24,8 11 6 20 11 NNW 1022,0 20 18 0,0
05.07.2020 19:00:00 21,4 17,4 25,2 30,4 24,8 14 8 24 13 NNW 1022,2 20 0 0,0
05.07.2020 18:00:00 22,6 16,4 30,8 29,7 24,8 19 10 25 14 NW 1022,8 20 53 0,0
05.07.2020 17:00:00 23,0 17,0 30,8 29,0 24,8 18 10 23 12 NW 1023,2 20 52 0,0
05.07.2020 16:00:00 24,0 15,5 36,7 28,3 24,8 15 8 18 10 W 1023,2 20 60 0,0
05.07.2020 15:00:00 24,5 15,4 37,7 27,7 24,8 13 7 17 9 W 1023,0 20 60 0,0
05.07.2020 14:00:00 24,0 17,5 36,6 27,3 24,8 11 6 18 10 WSW 1023,5 20 56 0,0
05.07.2020 13:00:00 23,9 16,7 36,0 27,1 24,7 11 6 16 9 SW 1023,6 20 60 0,0
05.07.2020 12:00:00 23,5 17,5 33,9 27,1 24,7 14 7 17 9 SW 1023,7 20 58 0,0
05.07.2020 11:00:00 22,6 17,3 33,5 27,2 24,7 13 7 18 10 SW 1023,9 20 60 0,0
05.07.2020 10:00:00 22,1 16,1 29,7 27,5 24,7 11 6 15 8 SSW 1023,9 20 60 0,0
05.07.2020 09:00:00 20,7 16,3 23,1 27,9 24,7 6 4 9 5 SSW 1023,6 20 57 0,0
05.07.2020 08:00:00 18,2 16,0 15,3 28,2 24,6 5 3 8 4 SE 1023,5 19 24 0,0
05.07.2020 07:00:00 16,0 14,4 14,6 28,5 24,6 5 3 7 4 SE 1023,6 16 0 0,0
05.07.2020 06:00:00 16,0 14,4 14,5 28,9 24,6 2 1 13 7 SE 1023,5 13 0 0,0
05.07.2020 05:00:00 16,0 13,5 14,6 29,3 24,6 11 6 15 8 WNW 1023,6 15 0 0,0
05.07.2020 04:00:00 17,7 15,0 14,8 29,7 24,6 13 7 16 9 WNW 1023,8 13 0 0,0
05.07.2020 03:00:00 16,0 13,3 14,9 30,0 24,6 12 7 16 8 WNW 1024,4 16 0 0,0
05.07.2020 02:00:00 16,5 14,1 15,4 30,3 24,6 2 1 5 3 SE 1024,8 17 0 0,0
05.07.2020 01:00:00 16,1 13,0 15,4 30,6 24,6 2 1 5 3 SE 1024,9 20 0 0,0
05.07.2020 00:00:00 16,9 13,4 16,1 30,7 24,5 2 1 10 5 ESE 1025,0 20 0 0,0
04.07.2020 23:00:00 18,0 13,7 16,6 30,7 24,6 8 4 11 6 NW 1025,0 20 0 0,0
04.07.2020 22:00:00 18,8 13,9 18,0 30,6 24,6 9 5 14 8 NW 1024,7 20 6 0,0
04.07.2020 21:00:00 19,6 13,5 20,5 30,3 24,6 11 6 15 8 NW 1024,7 20 25 0,0
04.07.2020 20:00:00 20,8 12,7 24,2 29,7 24,6 11 6 16 9 NW 1024,5 20 51 0,0
04.07.2020 19:00:00 21,5 12,1 29,4 29,0 24,6 10 5 16 9 WNW 1024,4 20 60 0,0
04.07.2020 18:00:00 22,5 12,4 33,4 28,3 24,6 11 6 16 9 W 1024,9 20 60 0,0
04.07.2020 17:00:00 22,9 12,8 35,5 27,5 24,6 12 6 16 9 W 1025,0 20 60 0,0
04.07.2020 16:00:00 22,9 13,4 36,1 26,8 24,6 13 7 18 10 W 1025,3 20 60 0,0
04.07.2020 15:00:00 22,8 13,0 36,3 26,2 24,6 12 6 18 10 W 1025,5 20 60 0,0
04.07.2020 14:00:00 22,4 12,9 36,7 25,8 24,6 13 7 16 9 WSW 1025,5 20 60 0,0
04.07.2020 13:00:00 21,6 12,2 35,2 25,6 24,6 10 5 15 8 W 1025,7 20 60 0,0
04.07.2020 12:00:00 21,4 12,8 33,1 25,6 24,6 10 5 14 8 W 1025,8 20 60 0,0
04.07.2020 11:00:00 21,0 12,7 28,1 25,7 24,6 10 6 15 8 W 1025,5 20 54 0,0
04.07.2020 10:00:00 20,2 13,6 27,5 26,0 24,6 7 4 13 7 SSW 1025,2 20 60 0,0
04.07.2020 09:00:00 18,3 14,2 20,4 26,4 24,6 6 4 10 6 S 1025,0 20 56 0,0
04.07.2020 08:00:00 15,6 14,3 13,2 26,7 24,6 8 4 12 6 SE 1024,7 20 25 0,0
04.07.2020 07:00:00 13,7 12,9 12,2 27,1 24,6 8 4 11 6 SE 1024,5 20 0 0,0
04.07.2020 06:00:00 13,9 12,9 12,2 27,5 24,5 7 4 9 5 SE 1024,5 20 0 0,0
04.07.2020 05:00:00 14,2 13,1 12,2 27,9 24,5 6 4 9 5 SE 1024,6 20 0 0,0
04.07.2020 04:00:00 13,8 11,7 12,2 28,3 24,5 6 3 7 4 ESE 1024,7 20 0 0,0
04.07.2020 03:00:00 14,5 12,0 12,8 28,6 24,5 5 3 6 4 E 1025,0 20 0 0,0
04.07.2020 02:00:00 14,5 11,8 13,0 28,9 24,5 5 3 5 3 E 1025,4 20 0 0,0
04.07.2020 01:00:00 15,1 11,7 13,5 29,1 24,5 4 2 6 3 E 1025,5 20 0 0,0
04.07.2020 00:00:00 16,0 11,8 14,6 29,3 24,5 9 5 20 11 N 1025,3 20 0 0,0
03.07.2020 23:00:00 17,6 12,3 15,9 29,3 24,6 15 8 22 12 NNW 1025,1 20 0 0,0
03.07.2020 22:00:00 18,0 12,4 16,8 29,1 24,6 15 8 21 12 NNW 1024,5 20 25 0,0
03.07.2020 21:00:00 19,7 12,2 20,6 28,7 24,6 17 9 26 14 NNW 1024,3 20 60 0,0
03.07.2020 20:00:00 20,5 13,2 25,7 28,2 24,6 19 10 27 15 NNW 1024,2 20 60 0,0
03.07.2020 19:00:00 20,9 13,3 28,5 27,5 24,6 21 11 26 14 NNW 1024,2 20 60 0,0
03.07.2020 18:00:00 21,1 12,5 30,8 26,8 24,6 18 10 26 14 NW 1024,3 20 60 0,0
03.07.2020 17:00:00 22,3 12,8 33,9 26,0 24,7 18 10 25 14 NW 1024,3 20 60 0,0
03.07.2020 16:00:00 21,9 12,2 34,7 25,4 24,7 16 9 20 11 WNW 1024,4 20 60 0,0
03.07.2020 15:00:00 21,4 12,0 34,5 24,9 24,7 15 8 20 11 NW 1024,5 20 60 0,0
03.07.2020 14:00:00 21,8 13,4 34,3 24,7 24,8 14 8 19 11 WNW 1024,8 20 60 0,0
03.07.2020 13:00:00 20,7 12,1 28,7 24,5 24,7 11 6 14 8 NW 1024,9 20 41 0,0
03.07.2020 12:00:00 20,4 11,9 27,4 24,5 24,8 9 5 16 9 NNW 1024,7 20 10 0,0
03.07.2020 11:00:00 19,3 12,8 17,5 24,6 24,8 4 2 11 6 WSW 1024,4 20 31 0,0
03.07.2020 10:00:00 17,4 12,3 18,0 24,8 24,8 6 4 22 12 NW 1024,4 17 0 0,0
03.07.2020 09:00:00 17,9 12,3 19,8 25,0 24,8 9 5 18 10 NE 1023,9 20 0 0,0
03.07.2020 08:00:00 17,8 11,8 15,6 25,2 24,8 8 5 15 8 N 1023,6 20 29 0,0
03.07.2020 07:00:00 15,6 11,4 14,5 25,5 24,8 11 6 20 11 NNW 1023,3 20 9 0,0
03.07.2020 06:00:00 15,8 11,2 14,3 25,7 24,9 9 5 19 10 NW 1023,1 20 0 0,0
03.07.2020 05:00:00 16,9 11,4 15,0 25,9 24,9 15 8 24 13 NW 1023,0 20 0 0,0
03.07.2020 04:00:00 17,2 11,7 15,5 26,2 24,9 18 10 27 15 NW 1023,1 20 0 0,0
03.07.2020 03:00:00 17,9 12,1 16,6 26,4 24,9 21 11 31 17 NW 1023,1 20 0 0,0
03.07.2020 02:00:00 17,9 12,8 16,7 26,6 24,9 22 12 27 15 WNW 1023,0 20 0 0,0
03.07.2020 01:00:00 17,7 12,6 15,8 26,8 24,9 18 10 23 12 WNW 1023,0 20 0 0,0
03.07.2020 00:00:00 17,7 12,2 15,7 26,9 24,9 16 9 22 12 WNW 1022,9 20 0 0,0
02.07.2020 23:00:00 18,0 12,0 16,7 26,9 25,0 16 9 23 12 NW 1022,5 20 0 0,0
02.07.2020 22:00:00 18,2 12,4 17,7 26,8 25,0 16 9 23 12 NW 1021,9 20 4 0,0
02.07.2020 21:00:00 18,6 12,3 18,9 26,6 25,0 16 9 28 15 NNW 1021,6 20 15 0,0
02.07.2020 20:00:00 20,2 12,4 22,4 26,5 25,0 20 11 26 14 NW 1021,2 20 43 0,0
02.07.2020 19:00:00 21,0 12,9 25,6 26,3 25,0 22 12 30 16 NW 1020,8 20 51 0,0
02.07.2020 18:00:00 20,1 12,8 25,0 26,1 25,1 23 13 29 16 WNW 1020,5 20 4 0,0
02.07.2020 17:00:00 20,8 13,2 25,0 26,0 25,1 20 11 25 13 WNW 1020,5 20 3 0,0
02.07.2020 16:00:00 20,0 13,5 24,0 25,9 25,1 18 10 27 14 WNW 1020,3 20 0 0,0
02.07.2020 15:00:00 20,2 14,3 24,6 25,9 25,1 19 11 24 13 WNW 1020,0 20 0 0,0

tt = temperature
td = dewpoint
tt 5cm = temperature 5cm
tt -20cm = temperature -20cm
tt -100cm = temperature -100cm
ff = wind speed
fx = gusts
dd = wind direction
ppp = reduced air pressure
vv = visibility
sd = sunshine duration
rr = precipitation

Next stations